Location: Caltech
(34.1382°N, 118.1253°W)
Time: 21:42:41
(UTC-07:00)

Iridium 72 - Visible Passes

Search period start: 20 August 2017 00:00
Search period end: 30 August 2017 00:00
Orbit: 776 x 779 km, 86.4° (Epoch: 20 August)

Date Brightness Start Highest point End Pass type
(mag) Time Alt. Az. Time Alt. Az. Time Alt. Az.
20 Aug 7.7 02:46:10 10° NNE 02:49:55 20° E 02:50:12 19° E visible
20 Aug 6.1 04:25:55 10° NNW 04:30:38 38° W 04:30:38 38° W visible
21 Aug 5.6 03:52:05 10° N 03:56:39 65° NW 03:56:39 65° NW visible
22 Aug 6.4 03:18:39 10° N 03:22:43 47° NE 03:22:43 47° NE visible
22 Aug 7.4 05:01:32 10° NW 05:03:10 13° WNW 05:03:10 13° WNW visible
23 Aug 7.4 02:45:39 10° NNE 02:48:49 26° NE 02:48:49 26° NE visible
23 Aug 6.9 04:26:27 10° NNW 04:29:15 23° WNW 04:29:15 23° WNW visible
24 Aug 8.2 02:13:25 10° NE 02:14:56 14° ENE 02:14:56 14° ENE visible
24 Aug 6.6 03:52:20 10° NNW 03:55:22 33° NNW 03:55:22 33° NNW visible
25 Aug 6.9 03:18:40 10° N 03:21:31 33° N 03:21:31 33° N visible
26 Aug 7.5 02:45:23 10° NNE 02:47:41 24° NNE 02:47:41 24° NNE visible
26 Aug 7.6 04:27:18 10° NW 04:28:07 13° NW 04:28:07 13° NW visible
27 Aug 8.2 02:12:37 10° NNE 02:13:52 15° NE 02:13:52 15° NE visible
27 Aug 7.4 03:52:44 10° NNW 03:54:19 18° NNW 03:54:19 18° NNW visible
28 Aug 7.5 03:18:49 10° N 03:20:32 21° NNW 03:20:32 21° NNW visible
29 Aug 7.8 02:45:18 10° N 02:46:45 19° N 02:46:45 19° N visible
